Regional Weather Roundup
Issued by NWS State College, PA

Home | Current Version | Previous Version | Graphics & Text | Print | Product List | Glossary On
Versions: 1 2 3 4 5 6 7 8 9 10 11 12 13 14 15 16 17 18 19 20 21 22 23 24 25 26 27 28 29 30 31 32 33 34 35 36 37 38 39 40 41 42 43 44 45 46 47 48 49 50
779
ASUS41 KCTP 300103
RWRCTP

REGIONAL WEATHER ROUNDUP
NATIONAL WEATHER SERVICE STATE COLLEGE PA
900 PM EDT FRI JUL 29 2016

Note: "fair" indicates few or no clouds below 12,000 feet with no
significant weather and/or obstructions to visibility.

* = STATION THAT DOES NOT REPORT PRECIPITATION /E.G. RAIN...SNOW...ETC/
    THUNDER OR FOG.

PAZ002>004-007>009-013>016-020>023-029>032-300200-
WESTERN PENNSYLVANIA

CITY           SKY/WX    TMP DP  RH WIND       PRES   REMARKS
ERIE           CLOUDY    77  68  73 NE8       29.96R
MEADVILLE      MOCLDY    67  65  93 NE3       29.99S
FRANKLIN*      PTCLDY    64  63  94 CALM      30.00S
NEW CASTLE     MOCLDY    70  69  97 CALM      29.98R
BEAVER COUNTY  CLEAR     73  64  73 CALM      29.97R
BUTLER*        PTCLDY    72  64  78 NE7       30.00R
PITTSBURGH INT PTCLDY    80  63  55 CALM      29.95R
PITTSBURGH     CLEAR     80  63  55 S5        29.95R
INDIANA*       PTCLDY    75  64  69 CALM      30.01R
LATROBE        CLEAR     77  68  73 CALM      29.96S
WASHINGTON CO* CLEAR     72  64  78 CALM      29.97R
$$

PAZ004>006-010>012-017>019-024>028-033>037-041-042-045-046-049>053-300200-
CENTRAL PENNSYLVANIA

CITY           SKY/WX    TMP DP  RH WIND       PRES   REMARKS
BRADFORD       CLOUDY    70  64  81 CALM      30.02R
DUBOIS         CLOUDY    72  63  73 E5        29.99S
CLEARFIELD     CLOUDY    73  63  70 NE3       29.98S
JOHNSTOWN      CLEAR     75  59  57 NW3       30.02R
ALTOONA        CLEAR     75  66  73 W3        29.97R
STATE COLLEGE  CLEAR     73  64  73 CALM      29.97R
WILLIAMSPORT   PTCLDY    81  64  56 W8        29.90R
SELINSGROVE    CLOUDY    75  72  90 SE3       29.91S
FT INDIANTOWN  CLOUDY    76  68  76 N1        29.90R
CAPITAL CITY   PTCLDY    83  67  58 S6        29.89R
HARRISBURG     PTCLDY    81  73  76 CALM      29.88S
YORK           CLEAR     77  70  79 CALM      29.91R
$$

PAZ038>040-043-044-047-048-054-055-060>062-067>071-300200-
EASTERN PENNSYLVANIA

CITY           SKY/WX    TMP DP  RH WIND       PRES   REMARKS
SCRANTON       CLEAR     79  64  60 E5        29.93R
MOUNT POCONO   CLEAR     68  63  84 N3        29.99R
ALLENTOWN      CLOUDY    79  70  74 SE3       29.91R
QUAKERTOWN*    CLOUDY    81  68  65 CALM      29.93R
READING        MOCLDY    82  68  62 NE7       29.89R
LANCASTER      CLEAR     81  68  64 SW5       29.90R
COATESVILLE    CLEAR     79  70  73 CALM      29.94R
POTTSTOWN      CLEAR     81  68  64 CALM      29.91R
BLUE BELL      CLEAR     77  68  73 CALM      29.89R
DOYLESTOWN     PTCLDY    77  71  82 S5        29.90R
WILLOW GROVE   NOT AVBL
NORTH PHILA    CLEAR     81  70  69 S6        29.91R
PHILADELPHIA   PTCLDY    81  70  69 SE6       29.90R
$$




USA.gov is the U.S. government's official web portal to all federal, state and local government web resources and services.